Location: Chuathbaluk
(61.5726°N, 159.2454°W)
Time: 13:38:50
(UTC+00:00)

XW-2F - Pass Details

Date: 22 January 2021
Orbit: 500 x 520 km, 97.5° (Epoch: 01 March)

Event Time Altitude Azimuth Distance (km) Brightness Sun altitude
Rises 04:11:36 0° 185° (S) 2,615 ? -12.9°
Reaches altitude 10° 04:13:47 10° 194° (SSW) 1,738 ? -13.2°
Maximum altitude 04:17:17 37° 263° (W) 823 ? -13.6°
Drops below altitude 10° 04:20:50 10° 332° (NNW) 1,762 ? -14.0°
Sets 04:23:04 0° 341° (NNW) 2,658 ? -14.2°
